SCP
0 0 0 0 0 0 0 0 0 0 0 0 0 0 0 0 0 1 1 1 1 1 1 1 1 1 0 0 0 0 0 0 0 0 0 0 0 0 0 0 0 0 0
0 0 0 0 0 0 0 0 0 0 0 0 0 0 0 0 0 0 0 1 1 1 1 1 1 1 1 0 0 0 0 0 0 0 0 0 0 0 0 0 0 0 0
0 0 0 0 0 0 0 0 0 0 0 0 0 0 0 0 0 0 0 0 1 1 1 1 1 1 1 1 0 0 0 0 0 0 0 0 0 0 0 0 0 0 0
0 0 0 0 0 0 0 0 0 0 0 0 0 0 0 0 0 0 0 1 1 1 1 1 1 1 1 1 1 0 0 0 0 0 0 0 0 0 0 0 0 0 0
0 0 0 0 0 0 0 0 0 0 0 0 0 0 0 0 0 0 1 1 1 1 1 1 1 1 1 1 1 0 0 0 0 0 0 0 0 0 0 0 0 0 0
0 0 0 0 0 0 0 0 0 0 0 0 0 0 0 0 0 0 1 1 1 1 1 1 1 1 1 1 1 0 0 0 0 0 0 0 0 0 0 0 0 0 0
0 0 0 0 0 0 0 0 0 0 0 0 0 0 0 0 0 0 0 1 1 1 1 1 1 0 0 0 0 0 0 0 0 0 0 0 0 0 0 0 0 0 0
0 0 0 0 0 0 0 0 0 0 0 0 0 0 0 0 0 0 0 0 1 1 1 0 0 0 0 0 0 0 0 0 0 0 0 0 0 0 0 0 0 0 0
0 0 0 0 0 0 0 0 0 0 0 0 0 0 0 0 0 0 0 0 0 0 0 0 0 0 0 0 0 0 0 0 0 0 0 0 0 0 0 0 0 0 0
0 0 0 0 0 0 0 0 0 0 0 0 0 0 0 0 0 0 0 0 0 0 0 0 0 0 0 0 0 0 0 0 0 0 0 0 0 0 0 0 0 0 0
0 0 0 0 0 0 0 0 0 0 0 0 0 0 0 0 0 0 0 0 0 0 0 0 0 0 0 0 0 0 0 0 0 0 0 0 0 0 0 0 0 0 0
0 0 0 0 0 0 0 0 0 0 0 0 0 0 0 0 0 0 0 0 0 0 0 0 0 0 0 0 0 0 0 0 0 0 0 0 0 0 0 0 0 0 0
0 0 0 0 0 0 0 0 0 0 0 0 0 0 0 0 0 0 0 0 0 0 0 0 0 0 0 0 0 0 0 0 0 0 0 0 0 0 0 0 0 0 0
0 0 0 0 0 0 0 0 0 0 0 0 0 0 0 0 0 0 0 0 0 0 0 0 0 0 0 0 0 0 0 0 0 0 0 0 0 0 0 0 0 0 0
0 0 0 0 0 0 0 0 0 0 0 0 0 0 0 0 0 0 0 0 0 0 0 0 0 0 0 0 0 0 0 0 0 0 0 0 0 0 0 0 0 0 0
0 0 0 0 0 0 0 0 0 0 0 0 0 0 0 0 0 0 0 0 0 0 0 0 0 0 0 0 0 0 0 0 0 0 0 0 0 0 0 0 0 0 0
0 0 0 0 0 0 0 0 0 0 0 0 0 0 0 0 0 0 0 0 0 0 0 0 0 0 0 0 0 0 0 0 0 0 0 0 0 0 0 0 0 0 0
0 0 0 0 0 0 0 0 0 0 0 0 0 0 0 0 0 0 0 0 0 0 0 0 0 0 0 0 0 0 0 0 0 0 0 0 0 0 0 0 0 0 0
0 0 0 0 0 0 0 0 0 0 0 0 0 0 0 0 0 0 0 0 0 0 0 0 0 0 0 0 0 0 0 0 0 0 0 0 0 0 0 0 0 0 0
0 0 0 0 0 0 0 0 0 0 0 0 0 0 0 0 0 0 0 0 0 0 0 0 0 0 0 0 -0 0 0 0 0 0 0 0 0 0 0 0 0 0 0
0 0 0 0 0 0 0 0 0 0 0 0 0 0 0 0 0 0 0 0 0 0 0 0 0 0 0 0 0 0 0 0 0 0 0 0 0 0 0 0 0 0 0
0 0 0 0 0 0 0 0 0 0 0 0 0 0 0 0 0 0 0 0 0 0 0 0 0 0 0 0 0 0 0 0 0 0 0 0 0 0 0 0 0 0 0
0 0 0 0 0 0 0 0 0 0 0 0 0 0 0 0 0 0 0 0 0 0 0 0 0 0 0 0 0 0 0 0 0 0 0 0 0 0 0 0 0 0 0
0 0 0 0 0 0 0 0 0 0 0 0 0 0 0 0 0 0 0 0 0 0 0 0 0 0 0 0 0 0 0 0 0 0 0 0 0 0 0 0 0 0 0
0 0 0 0 0 0 0 0 0 0 0 0 0 0 0 0 0 0 0 0 0 0 0 0 0 0 0 0 0 0 0 0 0 0 0 0 0 0 0 0 0 0 0
0 0 0 0 0 0 0 0 0 0 0 0 0 0 0 0 0 0 0 0 0 0 0 0 0 0 0 0 0 0 0 0 0 0 0 0 0 0 0 0 0 0 0
Wind_Speed
6 6 7 7 7 7 6 6 6 5 5 5 5 4 3 2 1 0 1 2 3 3 3 4 4 4 4 3 4 4 4 4 4 2 1 2 2 3 3 3 3 3 4
6 6 6 7 7 7 7 7 6 6 5 5 4 4 4 3 2 1 0 1 2 2 3 4 4 4 4 4 4 4 4 4 4 4 3 2 3 4 4 4 3 3 3
5 6 6 7 7 8 8 7 7 7 6 6 5 5 4 4 3 2 1 1 1 1 2 3 4 5 4 3 4 4 4 4 3 4 4 2 2 3 4 4 5 4 4
4 5 6 6 7 7 7 7 7 7 6 6 6 5 5 4 3 2 1 1 1 1 1 2 3 4 5 5 4 4 4 4 4 5 4 3 3 3 4 5 4 4 4
4 5 5 6 6 6 7 7 7 7 7 6 6 6 5 4 3 3 2 2 2 2 2 1 2 3 5 4 4 4 5 5 5 4 4 3 4 4 5 4 5 5 4
3 4 5 5 6 6 6 6 7 7 7 7 7 7 6 5 7 7 4 3 3 3 2 2 1 2 4 5 5 6 6 7 6 5 4 5 5 4 4 5 6 5 3
3 4 4 5 5 6 6 6 7 7 7 7 7 7 7 7 9 9 8 4 3 3 2 2 2 2 3 3 5 5 4 6 6 5 6 5 5 6 7 7 5 4 4
2 3 4 4 5 5 6 6 6 5 5 6 7 7 7 8 11 10 8 5 4 4 3 3 3 2 2 4 5 5 4 4 3 3 4 4 4 5 6 6 7 7 6
2 3 3 3 4 5 5 5 5 4 5 5 5 7 7 8 11 10 8 4 4 5 4 4 3 2 5 8 7 7 6 5 5 7 7 6 8 9 9 8 7 8 5
3 3 3 2 3 3 4 4 3 3 4 4 5 6 6 7 11 11 9 3 4 4 4 4 5 4 5 7 6 6 6 4 5 6 7 8 7 8 8 6 7 7 5
2 2 2 2 2 2 2 2 3 3 4 5 5 5 6 7 9 11 9 4 3 3 3 3 3 5 6 7 6 5 6 6 5 6 5 5 5 5 4 4 3 5 5
2 2 2 2 2 1 1 2 2 3 4 4 4 5 4 5 7 8 10 8 5 3 3 2 3 6 7 8 6 8 10 8 5 5 5 4 4 4 4 5 6 6 5
2 2 2 2 1 1 1 1 2 2 2 3 3 3 4 4 5 10 10 9 8 4 3 5 7 8 8 6 8 9 7 5 4 5 4 3 2 3 4 4 6 7 9
4 3 2 2 2 1 1 1 1 1 1 2 2 2 3 3 4 4 4 4 5 4 3 5 8 10 7 7 6 5 4 4 4 4 4 3 2 3 3 3 3 4 4
5 4 3 3 3 2 2 2 2 2 3 2 2 1 1 2 4 5 3 2 2 1 2 3 3 3 3 3 3 3 3 3 4 3 3 3 3 3 3 2 3 3 3
5 5 4 3 3 3 2 3 4 5 5 5 5 4 3 4 5 4 4 4 3 2 3 2 2 2 2 2 2 2 2 2 2 3 3 3 3 3 3 2 2 3 3
7 6 4 4 4 4 3 3 3 4 4 6 6 6 6 4 3 3 3 3 2 2 2 1 1 1 1 1 2 2 1 1 2 3 3 3 3 3 3 3 3 3 3
8 8 7 5 5 5 4 4 3 3 3 3 4 6 7 6 4 3 2 1 1 1 1 2 2 2 2 2 2 2 2 2 2 2 3 3 3 3 3 3 3 3 3
8 6 6 5 5 5 4 4 4 4 4 4 3 3 5 5 4 4 2 2 2 2 2 2 2 2 2 2 2 2 3 3 3 3 3 3 3 3 3 3 3 5 4
8 12 10 6 5 5 5 5 5 5 5 4 5 4 2 3 2 3 3 3 3 4 3 3 3 3 3 3 3 3 3 3 3 3 3 3 3 3 4 5 5 4 3
7 8 12 7 6 6 6 6 6 6 6 6 6 6 8 5 5 5 5 5 5 5 5 5 4 4 4 4 4 4 5 4 4 4 3 4 4 3 3 4 4 4 3
6 7 7 8 7 7 7 7 6 6 7 7 6 5 10 6 5 5 6 6 6 6 5 5 5 5 5 5 5 5 5 5 5 5 4 4 4 4 4 4 4 4 4
6 7 7 8 8 9 8 7 7 7 7 7 7 5 5 6 7 7 7 7 6 6 6 6 6 5 5 5 6 6 7 7 6 7 6 5 5 5 4 4 5 4 5
7 8 8 8 8 7 8 8 8 8 8 8 7 7 7 7 7 8 8 6 6 6 6 6 7 9 10 7 6 6 6 6 6 6 9 7 7 5 5 4 5 5 5
6 7 8 8 8 8 9 9 9 9 8 8 8 7 7 7 7 8 7 7 7 7 8 8 7 8 11 12 10 8 11 13 10 7 7 6 7 7 6 5 5 5 5
6 7 7 7 7 7 8 9 9 9 9 9 8 8 8 8 8 8 7 7 7 8 8 8 10 11 11 11 12 14 15 15 15 13 8 6 7 7 7 5 7 5 5
Wind_Direction
342 341 345 344 344 347 351 348 343 339 341 344 340 337 336 339 332 260 186 176 188 194 191 188 193 181 175 179 172 173 172 157 160 160 142 140 144 141 130 126 130 137 145
338 344 346 345 348 354 354 353 350 348 348 347 344 349 352 352 350 13 181 173 175 187 188 180 183 173 172 174 175 177 174 164 154 156 155 150 149 152 138 132 123 124 121
342 348 349 350 352 352 351 352 355 356 356 356 357 1 357 353 356 9 19 131 147 176 183 180 177 166 168 167 167 169 170 167 149 145 150 140 126 138 131 121 115 105 110
344 349 349 347 347 347 349 355 359 359 359 358 358 358 356 355 8 16 45 89 106 96 140 157 159 166 170 167 168 171 162 152 146 144 145 143 138 141 142 138 126 108 102
344 347 341 340 347 352 356 357 359 3 3 359 6 6 2 3 16 26 47 69 86 80 75 93 138 166 171 170 168 168 160 154 151 151 149 147 152 155 155 142 132 118 90
340 337 337 346 353 355 354 356 2 5 4 9 13 10 11 14 21 30 48 61 73 82 73 65 98 138 153 157 161 160 160 161 161 159 160 160 161 152 143 140 138 135 121
334 334 339 346 351 350 353 1 4 3 8 11 10 10 12 12 25 36 41 55 61 66 72 71 78 88 107 115 111 116 128 143 155 158 159 164 160 160 151 148 143 125 119
331 330 335 345 347 349 357 360 358 0 7 8 8 8 14 19 25 32 40 49 53 48 49 60 73 75 107 120 112 99 87 90 120 133 148 155 155 153 152 143 132 110 98
317 318 327 340 346 351 356 353 354 3 9 9 9 13 17 11 18 31 41 42 48 40 34 39 57 83 110 116 113 108 97 80 79 97 106 114 128 137 138 130 132 133 126
280 294 312 327 340 345 344 344 349 1 4 5 15 15 15 12 20 31 37 46 48 39 30 29 45 75 104 114 116 119 114 104 100 92 85 88 101 119 127 141 147 144 133
260 290 312 321 320 325 341 349 354 6 13 14 13 8 12 13 16 26 31 41 48 47 36 23 27 67 90 100 104 112 124 119 104 100 96 90 88 89 87 87 106 137 137
232 267 295 311 322 348 357 353 3 12 18 11 8 4 3 4 12 21 33 43 51 64 46 24 38 71 88 92 95 109 113 107 102 100 96 92 92 89 83 80 80 72 69
213 246 270 293 315 335 343 342 355 10 15 3 5 0 348 351 3 20 30 39 43 53 48 59 67 73 79 82 94 102 102 101 105 105 102 89 79 92 94 87 77 78 72
212 235 247 261 279 294 291 279 288 317 337 346 350 341 334 341 353 358 4 18 29 39 42 54 65 68 67 69 75 73 74 94 107 109 107 93 82 90 92 95 101 95 84
215 225 231 235 244 256 256 244 240 239 214 215 239 251 296 318 314 332 348 354 358 23 57 46 45 49 57 55 58 61 68 83 92 98 109 108 103 100 92 90 99 91 97
213 221 219 218 223 227 248 280 252 241 250 234 222 215 239 255 294 328 345 354 7 84 85 74 68 73 90 97 100 82 72 92 103 112 116 121 127 125 113 91 86 106 116
211 216 211 210 212 215 217 234 275 289 263 252 244 235 232 252 277 304 329 352 13 99 98 115 128 140 142 137 135 132 133 126 123 130 133 136 133 129 124 123 116 111 114
213 218 212 211 211 212 213 215 220 242 276 284 264 245 240 240 246 260 283 22 18 53 158 185 191 188 180 171 165 157 148 138 132 140 144 147 148 143 142 148 149 145 142
210 214 213 210 208 210 211 212 215 224 235 251 269 271 243 235 238 241 206 182 210 221 217 213 206 197 193 185 179 172 167 164 161 156 161 163 161 153 156 162 161 160 152
218 221 208 206 207 207 207 210 217 221 229 235 241 239 205 178 212 225 210 210 214 220 217 217 215 207 198 191 184 176 172 172 172 174 176 174 171 169 170 171 172 172 179
217 220 215 209 210 210 209 212 215 215 221 230 238 227 192 196 216 219 214 215 218 220 216 212 212 207 201 191 185 186 186 188 186 184 182 180 174 177 178 174 178 177 167
219 217 209 210 213 214 214 214 212 215 222 229 240 236 214 207 217 220 220 222 220 218 211 202 205 206 200 195 191 189 192 194 193 189 188 184 180 177 170 171 173 173 173
224 221 218 217 214 217 217 215 214 217 222 225 228 225 208 211 220 222 225 224 217 214 208 202 207 211 207 202 196 191 195 200 197 187 184 185 183 181 176 180 181 177 187
232 228 226 223 218 216 217 219 219 219 221 223 223 222 219 216 219 223 224 220 214 212 205 202 208 212 208 201 201 201 205 201 189 188 186 185 186 184 181 184 188 191 193
244 238 233 229 224 222 222 222 221 222 222 222 222 221 220 218 220 223 222 216 212 213 211 206 208 212 212 207 202 203 207 204 196 185 183 184 186 186 183 185 186 189 191
266 253 245 239 234 230 226 225 224 222 223 223 223 221 219 217 219 221 218 213 213 215 214 210 210 209 208 208 209 208 206 205 202 194 181 182 186 189 185 190 192 191 192